Back to catalog

SL-8 R/B

AlivePO
NORAD 25569·ROCKET BODY·🇷🇺 Russia

Launched Dec 10, 1998 from Plesetsk Cosmodrome

Loading…

Next Passes (next 24 hours)

TLE

FreshSource: Space-Track

Epoch: Sep 14, 2026, 17:15 UTC

1 25569U 98072C   26257.71910103  .00000072  00000-0  59653-4 0  9998
2 25569  82.9472 352.0673 0022308  99.9678  62.5652 13.74430639392022

Track SL-8 R/B in real time with AllMySat

Download on the App Store